Wind_Speed
17 18 18 18 19 19 20 20 21 20 19 20 23 25 27 28 28 29 30 31 33 36 38 38 38 39 40 42 43 44 45 47 48 49 49 50 50 50 50 50 51 50 50 50
17 18 19 19 19 20 21 21 22 22 21 20 22 24 25 27 27 28 30 31 32 34 36 36 36 37 38 39 41 42 44 45 48 49 50 50 50 50 50 50 50 50 50 50
19 20 20 20 18 19 20 20 21 22 22 22 22 23 25 27 27 27 29 31 32 33 34 35 36 35 37 38 40 42 43 43 45 48 50 51 50 51 51 51 52 51 51 50
20 20 20 20 19 18 19 20 21 21 21 21 20 20 22 24 26 26 27 28 30 31 33 34 35 35 35 37 39 40 41 42 44 45 47 48 48 49 50 49 49 49 49 49
20 21 21 20 20 20 20 21 21 22 21 21 20 20 20 22 23 25 26 27 28 30 32 33 34 35 35 36 37 38 40 40 42 43 45 47 47 48 48 48 48 48 49 48
21 21 21 20 20 21 22 22 22 23 23 22 21 21 21 22 23 24 25 26 28 30 31 32 33 34 34 35 36 37 38 39 40 42 43 45 46 47 48 49 49 49 47 47
22 21 21 21 21 22 23 23 23 23 24 24 23 23 23 23 24 25 26 26 27 29 30 31 33 34 34 35 35 36 37 38 39 41 42 43 44 45 47 48 48 48 47 47
23 22 22 22 23 24 24 25 25 25 24 24 24 24 24 25 25 26 26 26 27 28 29 31 32 33 34 35 35 35 36 37 39 40 40 42 43 44 45 46 46 47 47 47
23 23 23 24 25 25 25 25 25 25 25 24 24 24 25 26 26 26 26 26 27 28 29 30 31 31 32 33 34 35 35 36 37 39 40 41 42 42 43 44 44 44 45 46
24 25 25 26 26 26 25 25 25 25 24 24 24 24 24 25 26 26 26 27 27 27 27 29 30 30 31 32 33 34 35 36 36 37 38 39 41 41 42 43 42 42 42 43
25 26 27 27 27 26 26 25 24 24 24 24 24 24 24 25 26 26 26 27 27 27 27 28 30 31 31 32 33 34 34 35 35 35 36 36 38 39 39 39 40 40 40 41
26 27 27 27 27 27 26 25 25 24 24 24 24 25 25 26 26 26 27 27 27 27 28 29 30 31 32 32 33 34 34 34 35 34 35 35 36 36 36 37 37 38 38 39
28 28 28 28 27 27 27 25 25 25 24 24 25 26 26 25 26 26 27 27 28 28 28 29 30 30 32 32 33 34 34 35 34 34 34 34 34 34 35 36 36 37 38 39
27 28 29 28 27 26 26 25 24 24 24 24 24 25 26 26 26 26 26 27 28 28 28 28 29 30 30 31 32 32 33 33 34 34 34 34 34 34 35 36 36 37 38 39
27 28 28 28 26 25 25 24 24 23 22 23 23 24 25 26 25 25 25 25 26 27 28 28 28 28 29 29 30 31 32 34 34 34 34 34 34 35 35 36 36 37 37 37
27 27 27 27 25 24 24 24 24 23 22 22 22 23 24 25 25 25 25 24 25 25 26 27 27 27 27 29 30 31 32 32 33 33 34 34 34 34 34 34 35 35 35 35
27 27 27 26 25 24 23 23 22 22 22 22 22 22 22 23 23 24 24 24 24 24 25 26 26 26 26 27 28 29 30 31 31 32 32 33 33 33 33 33 34 34 34 35
27 27 26 25 24 23 23 22 22 21 22 22 22 22 22 22 22 22 23 23 23 23 23 23 24 24 25 25 25 25 26 27 28 29 30 31 31 32 33 33 33 33 33 34
26 26 26 25 23 23 22 22 21 21 21 21 21 20 20 20 21 22 22 23 23 23 23 23 22 22 22 23 23 23 24 25 26 27 27 28 29 30 30 31 32 33 33 34
25 25 24 23 23 22 22 21 21 21 21 20 20 20 20 20 21 21 22 22 22 22 22 22 21 21 21 21 22 23 24 24 25 26 27 27 28 29 30 30 31 31 32 33
25 24 23 22 21 21 20 20 20 20 20 19 19 19 20 20 20 20 21 21 21 21 21 21 21 21 21 21 22 23 24 24 25 25 26 27 27 28 29 29 30 30 30 30
24 23 22 22 21 21 20 20 20 19 19 19 19 19 20 20 20 20 20 21 21 20 20 20 20 21 21 22 22 23 24 24 25 25 26 26 27 27 28 28 28 28 28 28
23 22 22 21 21 20 20 19 19 19 19 19 19 20 20 20 20 20 20 20 20 20 20 20 20 20 21 21 22 23 23 23 24 24 25 25 26 26 26 26 26 26 25 25
22 21 21 20 20 19 18 18 18 18 19 19 19 20 20 20 20 20 19 19 19 18 19 19 19 20 20 21 21 22 22 23 23 23 23 24 24 24 24 24 24 24 23 24
21 20 20 19 19 18 18 18 18 18 19 19 20 20 20 20 20 20 19 18 18 18 18 19 19 19 20 20 20 21 21 22 22 22 22 22 21 21 21 21 21 21 22 22
20 19 19 19 18 18 18 18 18 18 19 19 20 20 20 20 19 19 18 18 18 18 18 18 19 19 19 19 19 19 19 19 19 19 19 18 18 18 18 19 19 20 20 20
20 19 19 18 18 18 18 18 19 19 19 20 20 19 19 19 18 18 18 17 17 17 18 18 19 18 18 18 18 18 17 17 17 16 16 16 16 16 17 17 18 18 18 19
Wind_Direction
293 291 287 285 281 282 283 280 280 279 274 268 262 262 261 260 260 257 255 252 250 248 245 245 247 247 247 246 245 245 246 246 245 245 245 245 246 249 251 252 255 257 259 260
293 291 289 288 283 281 282 282 282 280 277 272 268 265 263 260 259 257 255 254 252 249 246 246 248 248 247 245 245 246 246 246 245 245 245 246 247 249 251 253 254 257 258 259
296 290 287 289 289 286 285 284 282 280 277 275 272 271 266 262 261 258 255 254 253 251 248 248 248 249 248 247 246 248 248 247 246 246 246 247 249 251 252 254 256 258 259 260
298 293 290 291 290 287 286 285 283 281 278 277 274 274 269 265 262 259 257 255 254 253 251 251 249 249 250 248 248 250 248 248 248 248 248 248 249 251 252 255 257 258 260 261
302 297 293 290 290 287 287 286 284 281 279 277 275 272 270 267 265 263 259 257 256 255 254 253 251 251 250 249 249 251 251 249 250 250 251 250 251 252 253 256 258 260 260 260
307 302 298 297 291 288 288 288 287 283 279 276 274 271 269 266 264 264 265 262 260 258 257 255 252 253 252 252 251 252 252 252 252 251 252 252 252 253 254 256 258 261 262 262
305 303 300 299 295 290 290 290 287 284 281 277 274 272 269 266 265 266 267 267 265 262 260 257 255 255 254 255 254 254 253 254 254 254 254 254 254 255 256 258 260 261 261 261
302 300 301 299 295 291 291 289 287 284 281 278 275 272 271 270 268 268 269 270 268 266 262 259 259 258 257 257 256 256 256 256 256 255 255 255 256 257 258 260 261 260 261 261
301 301 300 298 297 295 292 290 287 284 281 277 275 274 272 270 270 270 270 270 269 267 263 261 262 260 258 257 257 257 257 257 257 257 257 258 258 259 260 260 260 260 261 261
299 299 299 298 296 295 293 292 289 285 281 277 274 274 272 271 271 272 273 272 271 268 263 261 260 260 259 258 257 257 258 258 258 259 260 260 259 260 260 260 260 262 262 263
299 298 298 297 296 295 293 291 289 285 280 277 273 271 271 271 270 272 273 274 273 269 264 261 259 259 259 259 258 258 258 257 258 260 261 260 260 260 261 260 261 262 264 264
301 301 299 297 295 294 292 290 288 285 281 277 273 271 271 270 270 272 274 274 272 270 266 263 262 260 259 259 259 259 258 258 260 261 262 261 261 260 259 260 261 263 264 266
299 300 299 298 296 294 292 290 287 284 281 277 273 273 273 272 272 274 275 275 274 272 269 267 265 264 262 261 261 260 259 259 259 261 261 261 260 260 260 261 263 264 265 267
299 299 298 297 296 294 292 291 290 286 283 279 274 273 272 272 273 274 275 275 273 272 271 270 270 267 265 263 262 261 259 258 258 260 261 262 261 261 262 262 263 265 266 267
300 300 300 298 296 293 291 290 290 288 285 282 278 275 274 273 274 275 275 275 273 272 271 269 269 268 264 263 263 262 261 259 260 261 262 262 262 262 262 263 264 265 266 268
300 301 301 298 296 294 292 290 289 287 285 283 281 279 278 277 276 275 275 275 275 274 273 270 269 269 266 264 264 264 264 263 262 262 262 262 262 262 262 263 264 266 267 268
300 301 301 299 296 294 293 291 288 287 286 284 283 282 283 282 280 277 276 275 277 276 274 271 269 269 268 267 266 265 265 265 265 265 263 263 263 262 263 264 265 266 267 269
299 299 300 299 296 295 294 291 287 286 287 287 286 285 285 284 283 281 279 278 278 277 274 270 270 270 269 268 268 268 268 267 267 266 265 263 263 263 263 264 265 266 268 271
298 298 298 297 295 294 292 289 287 286 287 288 288 287 286 285 284 283 282 280 280 279 275 274 273 272 271 270 269 269 269 268 267 266 265 264 264 265 266 267 267 268 269 270
299 299 298 297 296 294 291 288 286 286 287 287 286 287 288 287 286 286 285 284 282 280 276 274 275 275 274 273 272 272 273 272 270 268 268 267 267 268 268 269 269 270 271 271
300 300 299 299 298 295 291 288 287 287 287 288 288 289 289 289 288 287 286 285 283 279 276 274 274 275 275 275 275 277 276 275 273 271 272 272 271 271 270 271 271 271 272 272
301 302 301 299 297 295 292 289 289 288 289 291 293 293 292 291 290 289 288 286 284 280 277 275 275 276 276 277 279 280 279 277 276 275 274 274 274 273 273 273 272 271 271 271
301 301 300 298 296 293 292 290 290 290 291 293 294 294 294 292 292 292 289 287 284 279 275 274 277 278 278 279 281 283 282 281 279 279 278 277 276 274 273 272 271 270 270 270
302 301 300 298 295 293 292 291 291 291 293 294 295 295 294 293 293 293 291 287 284 280 277 276 277 279 281 282 283 284 285 285 283 282 280 279 277 275 272 270 269 269 269 270
302 301 300 298 296 294 293 293 293 293 294 295 295 295 295 294 293 292 290 286 283 281 279 278 279 282 284 285 286 287 288 288 285 283 282 280 277 273 271 270 270 269 270 270
301 301 300 297 295 295 294 294 295 295 295 296 296 295 294 294 294 291 288 285 283 282 280 280 281 283 285 287 289 290 291 290 288 287 285 282 277 274 272 272 272 272 271 271
300 301 301 298 295 294 295 296 297 298 298 298 297 295 294 295 294 291 288 287 286 284 283 283 284 284 285 286 288 290 291 292 292 291 287 282 278 276 275 275 275 275 274 273
Height
5626 5624 5623 5622 5621 5619 5618 5616 5615 5615 5614 5614 5614 5614 5615 5615 5615 5616 5617 5619 5620 5622 5624 5627 5629 5631 5633 5635 5638 5640 5642 5645 5648 5651 5655 5659 5662 5664 5667 5669 5672 5673 5675 5677
5622 5619 5617 5616 5615 5614 5612 5611 5609 5608 5608 5607 5607 5607 5607 5607 5608 5609 5609 5610 5612 5613 5615 5617 5619 5621 5623 5625 5627 5630 5632 5634 5637 5640 5644 5647 5650 5653 5655 5657 5660 5661 5663 5664
5616 5614 5612 5611 5610 5608 5607 5605 5604 5602 5603 5601 5601 5601 5600 5600 5601 5601 5601 5602 5603 5605 5606 5608 5610 5612 5613 5615 5617 5620 5622 5624 5626 5629 5633 5636 5639 5641 5644 5646 5648 5650 5651 5652
5610 5609 5607 5608 5604 5602 5601 5599 5598 5597 5596 5595 5594 5594 5593 5593 5594 5594 5594 5594 5595 5596 5598 5600 5601 5602 5604 5606 5608 5610 5612 5614 5616 5619 5622 5624 5627 5629 5632 5634 5636 5638 5639 5640
5604 5602 5601 5601 5598 5596 5595 5594 5592 5591 5590 5588 5587 5587 5587 5587 5586 5586 5587 5587 5588 5588 5589 5590 5592 5593 5595 5596 5598 5600 5602 5603 5605 5608 5610 5613 5615 5618 5620 5622 5624 5626 5627 5628
5599 5596 5595 5596 5593 5590 5589 5588 5587 5584 5583 5582 5581 5581 5582 5580 5580 5580 5579 5580 5580 5580 5581 5582 5583 5584 5585 5587 5588 5590 5591 5593 5594 5596 5599 5601 5603 5606 5608 5610 5612 5613 5615 5615
5594 5591 5590 5589 5586 5584 5584 5583 5580 5577 5576 5575 5574 5574 5574 5573 5572 5572 5572 5572 5572 5572 5573 5573 5574 5575 5576 5577 5579 5580 5581 5582 5584 5586 5588 5590 5592 5594 5596 5598 5600 5601 5602 5603
5589 5586 5587 5582 5579 5578 5576 5574 5572 5570 5569 5567 5567 5566 5566 5565 5565 5564 5564 5564 5564 5564 5564 5564 5565 5566 5567 5568 5569 5570 5571 5573 5574 5575 5577 5578 5580 5582 5584 5585 5587 5588 5589 5590
5584 5583 5579 5575 5573 5570 5568 5566 5564 5562 5561 5560 5559 5558 5558 5558 5557 5557 5556 5556 5555 5555 5555 5556 5556 5557 5557 5558 5559 5560 5562 5563 5564 5565 5566 5568 5569 5570 5572 5573 5574 5576 5576 5577
5577 5575 5572 5569 5566 5563 5561 5559 5557 5555 5554 5552 5552 5551 5550 5550 5549 5548 5548 5547 5547 5547 5547 5547 5547 5548 5548 5548 5549 5550 5551 5552 5554 5555 5556 5556 5557 5559 5560 5561 5562 5563 5564 5565
5570 5568 5565 5562 5559 5556 5554 5552 5549 5547 5546 5545 5544 5543 5542 5542 5541 5540 5540 5539 5538 5538 5538 5538 5538 5538 5538 5539 5539 5540 5541 5542 5543 5544 5545 5545 5546 5547 5548 5549 5550 5551 5552 5553
5563 5560 5557 5554 5551 5548 5546 5544 5542 5540 5539 5537 5536 5535 5534 5534 5533 5532 5531 5530 5530 5529 5529 5529 5529 5528 5528 5529 5529 5530 5531 5532 5533 5534 5534 5535 5535 5536 5537 5538 5538 5539 5539 5540
5556 5552 5549 5546 5543 5540 5538 5536 5534 5532 5531 5529 5528 5527 5526 5525 5524 5523 5522 5522 5521 5520 5520 5519 5519 5518 5518 5519 5519 5520 5520 5521 5522 5523 5523 5524 5525 5526 5526 5527 5527 5528 5528 5528
5548 5544 5541 5538 5536 5533 5530 5528 5526 5524 5522 5521 5519 5518 5517 5516 5516 5515 5514 5513 5512 5511 5510 5510 5509 5509 5508 5508 5509 5509 5510 5511 5511 5512 5513 5513 5514 5514 5515 5516 5516 5516 5517 5517
5540 5536 5533 5531 5528 5525 5522 5520 5518 5516 5515 5513 5511 5510 5509 5508 5507 5506 5505 5504 5502 5502 5501 5500 5500 5499 5499 5499 5499 5499 5500 5500 5501 5502 5502 5503 5503 5504 5504 5505 5505 5505 5505 5505
5531 5528 5525 5523 5520 5517 5515 5513 5511 5509 5507 5505 5504 5502 5501 5499 5498 5497 5496 5495 5494 5493 5492 5491 5491 5490 5490 5489 5489 5490 5490 5490 5491 5491 5492 5492 5492 5493 5493 5494 5494 5494 5494 5494
5523 5520 5518 5515 5512 5510 5508 5505 5503 5501 5500 5498 5496 5494 5493 5491 5490 5489 5488 5486 5485 5484 5483 5483 5482 5481 5481 5480 5480 5480 5480 5481 5481 5481 5481 5482 5482 5482 5483 5483 5483 5483 5483 5483
5515 5512 5510 5507 5505 5502 5500 5498 5496 5494 5493 5491 5489 5487 5485 5484 5482 5481 5480 5479 5477 5476 5475 5474 5474 5473 5473 5472 5472 5472 5472 5472 5471 5471 5471 5471 5472 5472 5472 5472 5472 5473 5473 5473
5507 5504 5502 5499 5497 5494 5493 5491 5489 5487 5485 5483 5482 5480 5478 5477 5475 5474 5472 5471 5470 5469 5468 5467 5466 5466 5465 5465 5464 5464 5463 5463 5463 5462 5462 5462 5462 5462 5462 5462 5462 5462 5462 5462
5499 5496 5494 5491 5489 5487 5485 5483 5482 5480 5478 5477 5475 5473 5471 5470 5468 5467 5465 5464 5463 5462 5460 5460 5459 5458 5458 5457 5457 5456 5455 5455 5454 5454 5453 5453 5453 5452 5452 5452 5452 5451 5451 5450
5492 5489 5487 5485 5483 5480 5478 5476 5475 5473 5472 5470 5468 5467 5465 5463 5461 5460 5458 5457 5456 5454 5453 5453 5452 5452 5451 5450 5449 5449 5448 5447 5446 5445 5445 5444 5443 5443 5442 5442 5441 5441 5440 5439
5484 5482 5480 5478 5476 5474 5472 5470 5469 5467 5466 5464 5462 5460 5458 5457 5455 5453 5451 5450 5449 5447 5447 5446 5445 5445 5444 5443 5442 5441 5440 5439 5438 5437 5436 5435 5434 5433 5433 5432 5432 5431 5430 5430
5477 5475 5473 5471 5469 5467 5466 5464 5462 5461 5460 5458 5456 5454 5452 5450 5448 5447 5445 5443 5442 5441 5440 5439 5439 5438 5437 5436 5435 5434 5432 5431 5430 5428 5427 5426 5425 5424 5423 5423 5422 5422 5422 5421
5470 5468 5466 5464 5462 5461 5459 5458 5456 5455 5453 5452 5450 5448 5446 5444 5442 5440 5438 5437 5435 5434 5433 5433 5432 5431 5430 5429 5428 5426 5425 5423 5421 5420 5418 5417 5416 5415 5415 5415 5414 5414 5414 5413
5463 5461 5459 5457 5456 5454 5453 5451 5450 5449 5447 5445 5443 5441 5439 5437 5436 5434 5432 5431 5429 5428 5427 5426 5426 5425 5424 5423 5421 5419 5418 5416 5414 5412 5411 5409 5409 5408 5407 5407 5407 5407 5406 5406
5456 5454 5452 5451 5449 5448 5446 5445 5444 5442 5440 5439 5437 5435 5433 5431 5429 5428 5426 5425 5423 5422 5421 5420 5419 5418 5417 5416 5415 5413 5411 5409 5407 5405 5404 5403 5402 5401 5401 5400 5400 5400 5399 5399
5449 5448 5446 5444 5443 5441 5440 5439 5437 5436 5434 5432 5430 5428 5427 5425 5423 5422 5420 5419 5418 5417 5415 5414 5413 5412 5411 5410 5408 5407 5405 5403 5401 5400 5398 5397 5396 5396 5395 5394 5394 5393 5393 5392